User: anonymous
Location: Unspecified
(0.0000°N, 0.0000°E)
Time: 13:35:53
(UTC+00:00)
Language:

UHF F/O F4 - Orbit

View from above orbital plane
View from above orbital plane
View from above satellite
View from above satellite

Ground track
Ground track

The orbit data is extracted from the following two-line orbital elements,

1 23467U 95003A   14078.88728960 0.00000000  00000-0  00000-0 0    00
2 23467   8.2698  36.6606 0004588 268.6885  91.2655  1.00270000    00
Epoch (UTC): 19 March 2014 21:17:41
Eccentricity: 0.0004588
inclination: 8.2698°
perigee height: 35767 km
apogee height: 35806 km
right ascension of ascending node: 36.6606°
argument of perigee: 268.6885°
revolutions per day: 1.00270000
mean anomaly at epoch: 91.2655°
orbit number at epoch: 0

The dashed part of the orbit path shows where the satellite is in the earth's shadow,  

DLR